User: anonymous   Login
Location: Mount Wilson Observatory
(34.2257°N, 118.0571°W)
Time: 15:27:39
(UTC-07:00)
Language:

ATLAS 3B CENTAUR R/B - Orbit

View from above orbital plane
View from above orbital plane
View from above satellite
View from above satellite

Ground track
Ground track

The orbit data is extracted from the following two-line orbital elements,

1 28118U 03057B   18110.13614603  .00051159 -10693-5  67687-3 0  9993
2 28118  28.1221   7.0839 2855280 200.8701 144.7010  9.77543299319086
Epoch (UTC): 20 April 2018 03:16:03
Eccentricity: 0.2855280
inclination: 28.1221°
perigee height: 223 km
apogee height: 5499 km
right ascension of ascending node: 7.0839°
argument of perigee: 200.8701°
revolutions per day: 9.77543299
mean anomaly at epoch: 144.7010°
orbit number at epoch: 31908

The dashed part of the orbit path shows where the satellite is in the earth's shadow,  

DLR